Zurück zum Katalog

USA 483

AktivMilitärVLEO
NORAD 62552·PAYLOAD·🇺🇸 United States

Gestartet Jan 10, 2025 von Vandenberg Space Force Base

Loading…

Nächste Überflüge (nächste 24 Stunden)

TLE

VeraltetSource: Mike McCants

Epoche: Aug 24, 2026, 01:47 UTC

1 62552U 25005W   26236.07470279 0.00000000  00000-0  00000-0 0    00
2 62552  70.0135 231.5285 0003000  66.1817 293.8182 14.96713588    01

Verfolge USA 483 in Echtzeit mit AllMySat

Download on the App Store